DW8824 Petit Raffray MU current weather conditions

sailwx.info

Wind from 182 at 0 knots gusting 6

Air temperature 23.3° C
Dewpoint 18.4° C

Last reported at 2019-Sep-17 04:09 UTC.
Time now 2019-Sep-17 04:37 UTC

Location: S 20°02' E 057°37'.
View on Google Maps.

See reports from other nearby stations

  
Tides and Currents Weather Stations Pressure Air Temp Water Temp Dewpoint Dewpoint Depression Visibility Wind Speed Wind Dir Waves Ship Positions
date/time (UTC)wind fromknots sea level pressurealtimeterstation pressurevisibilityair tempwater tempwave heightnotes
2019-Sep-17 04:09 182 0 gusting 6 23.3
2019-Sep-17 04:04 154 0 gusting 6 23.3
2019-Sep-17 03:59 140 0 gusting 6 22.8
2019-Sep-17 03:54 167 22.8
2019-Sep-17 03:49 137 0 gusting 6 22.8
2019-Sep-17 03:44 173 0 gusting 5 22.2
2019-Sep-17 03:39 164 0 gusting 4 22.2
2019-Sep-17 03:34 170 22.2
2019-Sep-17 03:29 172 21.7
2019-Sep-17 03:24 170 0 gusting 4 21.7
2019-Sep-17 03:19 163 0 gusting 2 21.1
2019-Sep-17 03:14 165 0 gusting 5 21.1
2019-Sep-17 03:09 155 0 gusting 5 20.6
2019-Sep-17 03:04 177 1 gusting 5 20.6
2019-Sep-17 02:59 167 2 gusting 5 20.6
2019-Sep-17 02:54 172 20.0
2019-Sep-17 02:49 175 20.0
2019-Sep-17 02:44 177 0 gusting 6 20.0
2019-Sep-17 02:39 172 0 gusting 4 19.4
2019-Sep-17 02:34 173 0 gusting 6 19.4
2019-Sep-17 02:29 173 0 gusting 4 19.4
2019-Sep-17 02:24 173 1 gusting 4 19.4
2019-Sep-17 02:19 173 0 gusting 4 19.4
2019-Sep-17 02:14 173 1 gusting 6 19.4
2019-Sep-17 02:09 172 1 gusting 5 19.4
2019-Sep-17 02:04 169 18.9
2019-Sep-17 01:59 171 0 gusting 4 18.9
2019-Sep-17 01:54 171 18.9
2019-Sep-17 01:49 171 18.9
2019-Sep-17 01:44 171 19.4
2019-Sep-17 01:39 173 19.4
2019-Sep-17 01:34 173 19.4
2019-Sep-17 01:29 173 19.4
2019-Sep-17 01:24 173 19.4
2019-Sep-17 01:19 173 19.4
2019-Sep-17 01:14 172 19.4
2019-Sep-17 01:09 171 1 gusting 6 19.4
2019-Sep-17 01:04 150 1 gusting 5 19.4
2019-Sep-17 00:59 159 1 gusting 6 19.4
2019-Sep-17 00:54 171 0 gusting 2 18.9
2019-Sep-17 00:49 173 0 gusting 5 18.9
2019-Sep-17 00:44 174 0 gusting 5 18.9
2019-Sep-17 00:39 171 0 gusting 4 18.9
2019-Sep-17 00:34 171 0 gusting 4 19.4
2019-Sep-17 00:29 173 0 gusting 5 19.4
2019-Sep-17 00:24 173 0 gusting 2 19.4
2019-Sep-17 00:19 175 19.4
2019-Sep-17 00:14 182 0 gusting 2 19.4
2019-Sep-17 00:09 182 19.4
2019-Sep-17 00:04 184 0 gusting 2 19.4
2019-Sep-16 23:59 186 19.4
2019-Sep-16 23:54 187 1 gusting 5 19.4
2019-Sep-16 23:49 163 0 gusting 4 19.4
2019-Sep-16 23:44 163 19.4
2019-Sep-16 23:39 160 19.4
2019-Sep-16 23:34 159 0 gusting 2 19.4
2019-Sep-16 23:29 159 0 gusting 2 19.4
2019-Sep-16 23:24 159 0 gusting 2 19.4
2019-Sep-16 23:19 159 0 gusting 4 19.4
2019-Sep-16 23:14 161 19.4
2019-Sep-16 23:09 161 0 gusting 2 19.4
2019-Sep-16 23:04 159 0 gusting 4 19.4
2019-Sep-16 22:59 155 1 gusting 5 19.4
2019-Sep-16 22:54 153 1 gusting 5 19.4
2019-Sep-16 22:49 151 0 gusting 4 19.4
2019-Sep-16 22:44 161 0 gusting 4 19.4
2019-Sep-16 22:39 164 0 gusting 4 19.4
2019-Sep-16 22:34 163 1 gusting 5 19.4
2019-Sep-16 22:29 153 0 gusting 2 19.4
2019-Sep-16 22:24 150 0 gusting 4 19.4
2019-Sep-16 22:19 157 0 gusting 5 19.4
2019-Sep-16 22:14 159 0 gusting 2 19.4
2019-Sep-16 22:09 158 19.4
2019-Sep-16 22:04 158 19.4
2019-Sep-16 21:59 158 1 gusting 5 19.4
2019-Sep-16 21:54 157 0 gusting 2 19.4
2019-Sep-16 21:49 157 20.0
2019-Sep-16 21:44 158 20.0
2019-Sep-16 21:39 156 0 gusting 5 20.0
2019-Sep-16 21:34 154 1 gusting 2 20.0
2019-Sep-16 21:29 154 20.0
2019-Sep-16 21:24 154 1 gusting 5 19.4
2019-Sep-16 21:19 173 0 gusting 5 19.4
2019-Sep-16 21:14 169 0 gusting 4 19.4
2019-Sep-16 21:09 163 0 gusting 2 19.4
2019-Sep-16 21:04 162 0 gusting 5 19.4
2019-Sep-16 20:59 167 19.4
2019-Sep-16 20:54 167 0 gusting 5 19.4
2019-Sep-16 20:49 168 0 gusting 4 19.4
2019-Sep-16 20:44 179 0 gusting 6 19.4
2019-Sep-16 20:39 155 1 gusting 4 20.0
2019-Sep-16 20:34 167 1 gusting 5 20.0
2019-Sep-16 20:29 166 20.0
2019-Sep-16 20:24 166 20.0
2019-Sep-16 20:19 166 20.0
2019-Sep-16 20:14 166 20.0
2019-Sep-16 20:09 166 0 gusting 4 20.6
2019-Sep-16 20:04 161 20.6
2019-Sep-16 19:59 160 20.6
2019-Sep-16 19:54 160 20.0
2019-Sep-16 19:49 160 20.6
2019-Sep-16 19:44 160 20.6
2019-Sep-16 19:39 160 20.6
2019-Sep-16 19:34 159 0 gusting 4 20.6
2019-Sep-16 19:29 159 0 gusting 5 20.6
2019-Sep-16 19:24 152 20.6
2019-Sep-16 19:19 151 20.6
2019-Sep-16 19:14 151 20.6
2019-Sep-16 19:09 150 20.6
2019-Sep-16 19:04 154 0 gusting 6 20.6
2019-Sep-16 18:59 157 0 gusting 5 20.6
2019-Sep-16 18:54 161 20.6
2019-Sep-16 18:49 163 20.6
2019-Sep-16 18:44 161 20.6
2019-Sep-16 18:39 161 20.6
2019-Sep-16 18:34 162 21.1
2019-Sep-16 18:29 162 21.1
2019-Sep-16 18:24 152 0 gusting 2 21.1
2019-Sep-16 18:19 132 21.1
2019-Sep-16 18:14 119 0 gusting 2 21.1
2019-Sep-16 18:09 128 0 gusting 4 21.1
2019-Sep-16 18:04 122 1 gusting 5 21.1
2019-Sep-16 17:59 140 21.1
2019-Sep-16 17:54 142 21.1
2019-Sep-16 17:49 163 0 gusting 2 21.1
2019-Sep-16 17:44 149 0 gusting 5 21.1
2019-Sep-16 17:39 149 21.1
2019-Sep-16 17:34 148 21.1
2019-Sep-16 17:29 148 21.1
2019-Sep-16 17:24 151 21.1
2019-Sep-16 17:19 160 0 gusting 5 21.1
2019-Sep-16 17:14 162 1 gusting 5 21.1
2019-Sep-16 17:09 157 0 gusting 5 21.1
2019-Sep-16 17:04 153 21.1
2019-Sep-16 16:59 136 0 gusting 5 21.1
2019-Sep-16 16:54 141 0 gusting 2 21.1
2019-Sep-16 16:49 149 21.1
2019-Sep-16 16:44 159 21.1
2019-Sep-16 16:39 140 0 gusting 2 21.1
2019-Sep-16 16:34 137 21.1
2019-Sep-16 16:29 142 21.1
2019-Sep-16 16:24 143 21.1
2019-Sep-16 16:19 153 0 gusting 5 21.1
2019-Sep-16 16:14 145 0 gusting 4 21.1
2019-Sep-16 16:09 158 0 gusting 4 21.1
2019-Sep-16 16:04 121 0 gusting 4 21.1
2019-Sep-16 15:59 145 21.1
2019-Sep-16 15:54 144 21.1
2019-Sep-16 15:49 151 0 gusting 4 21.1
2019-Sep-16 15:44 128 21.7
2019-Sep-16 15:39 134 1 gusting 4 21.7
2019-Sep-16 15:34 133 0 gusting 2 21.7
2019-Sep-16 15:29 144 21.7
2019-Sep-16 15:24 144 21.7
2019-Sep-16 15:19 136 1 gusting 2 21.7
2019-Sep-16 15:14 137 21.7
2019-Sep-16 15:09 153 0 gusting 2 21.7
2019-Sep-16 15:04 144 21.7
2019-Sep-16 14:59 145 21.7
2019-Sep-16 14:54 150 22.2
2019-Sep-16 14:49 120 0 gusting 2 22.2
2019-Sep-16 14:44 154 22.2
2019-Sep-16 14:39 129 0 gusting 6 22.2
2019-Sep-16 14:34 116 0 gusting 2 22.2
2019-Sep-16 14:29 122 22.8
2019-Sep-16 14:24 109 0 gusting 4 22.8
2019-Sep-16 14:19 123 0 gusting 6 22.8
2019-Sep-16 14:14 121 1 gusting 6 22.8
2019-Sep-16 14:09 119 1 gusting 7 22.8
2019-Sep-16 14:04 117 0 gusting 6 22.8
2019-Sep-16 13:59 131 3 gusting 7 22.8
2019-Sep-16 13:54 112 1 gusting 6 23.3
2019-Sep-16 13:49 126 1 gusting 7 23.3
2019-Sep-16 13:44 136 1 gusting 7 23.3
2019-Sep-16 13:39 122 2 gusting 6 23.3
2019-Sep-16 13:34 126 23.3
2019-Sep-16 13:29 090 2 gusting 10 23.3
2019-Sep-16 13:24 136 3 gusting 7 23.9
2019-Sep-16 13:19 117 2 gusting 8 23.9
2019-Sep-16 13:14 099 1 gusting 7 23.9
2019-Sep-16 13:09 074 0 gusting 7 23.9
2019-Sep-16 13:04 088 2 gusting 8 23.9
2019-Sep-16 12:59 113 1 gusting 8 23.9
2019-Sep-16 12:54 100 1 gusting 8 23.9
2019-Sep-16 12:49 097 0 gusting 10 24.4
2019-Sep-16 12:44 116 2 gusting 8 23.9
2019-Sep-16 12:39 099 1 gusting 6 23.9
2019-Sep-16 12:34 112 4 gusting 8 23.9
2019-Sep-16 12:29 120 6 gusting 10 23.9
2019-Sep-16 12:24 097 2 gusting 10 24.4
2019-Sep-16 12:19 076 4 gusting 10 23.9
2019-Sep-16 12:14 088 5 gusting 10 24.4
2019-Sep-16 12:09 103 3 gusting 7 24.4
2019-Sep-16 12:04 120 6 gusting 11 24.4
2019-Sep-16 11:59 096 6 gusting 11 24.4
2019-Sep-16 11:54 082 4 gusting 10 24.4
2019-Sep-16 11:49 064 3 gusting 10 24.4
2019-Sep-16 11:44 148 2 gusting 10 24.4
2019-Sep-16 11:39 077 5 gusting 11 24.4
2019-Sep-16 11:34 116 0 gusting 10 24.4
2019-Sep-16 11:29 111 4 gusting 10 24.4
2019-Sep-16 11:24 087 2 gusting 10 24.4
2019-Sep-16 11:19 079 5 gusting 10 25.0
2019-Sep-16 11:14 077 2 gusting 10 25.0
2019-Sep-16 11:09 119 2 gusting 8 25.0
2019-Sep-16 11:04 077 4 gusting 10 25.0
2019-Sep-16 10:59 114 3 gusting 7 25.0
2019-Sep-16 10:54 098 3 gusting 10 25.0
2019-Sep-16 10:49 103 4 gusting 10 25.0
2019-Sep-16 10:44 130 1 gusting 12 25.0
2019-Sep-16 10:39 093 3 gusting 10 25.6
2019-Sep-16 10:34 076 5 gusting 10 25.0
2019-Sep-16 10:29 095 5 gusting 10 25.6
2019-Sep-16 10:24 127 3 gusting 7 25.0
2019-Sep-16 10:19 078 3 gusting 10 25.0
2019-Sep-16 10:14 090 2 gusting 10 25.0
2019-Sep-16 10:09 093 4 gusting 10 25.0
2019-Sep-16 10:04 076 5 gusting 10 25.6
2019-Sep-16 09:59 080 2 gusting 11 25.6
2019-Sep-16 09:54 112 1 gusting 10 25.6
2019-Sep-16 09:49 078 4 gusting 10 25.0
2019-Sep-16 09:44 118 5 gusting 12 25.0
2019-Sep-16 09:39 074 4 gusting 11 25.0
2019-Sep-16 09:34 080 5 gusting 10 25.0
2019-Sep-16 09:29 104 4 gusting 11 25.0
2019-Sep-16 09:24 094 5 gusting 12 25.0
2019-Sep-16 09:19 098 4 gusting 10 25.0
2019-Sep-16 09:14 085 6 gusting 11 25.0
2019-Sep-16 09:09 065 7 gusting 11 25.0
2019-Sep-16 09:04 079 6 gusting 12 25.6
2019-Sep-16 08:59 068 6 gusting 13 25.6
2019-Sep-16 08:54 065 5 gusting 12 26.1
2019-Sep-16 08:49 089 4 gusting 10 26.1
2019-Sep-16 08:44 092 2 gusting 10 26.1
2019-Sep-16 08:39 112 5 gusting 8 26.1
2019-Sep-16 08:34 077 5 gusting 10 25.6
2019-Sep-16 08:29 146 1 gusting 10 25.6
2019-Sep-16 08:24 083 5 gusting 10 25.6
2019-Sep-16 08:19 048 6 gusting 12 26.1
2019-Sep-16 08:14 124 4 gusting 10 25.6
2019-Sep-16 08:09 031 3 gusting 8 25.6
2019-Sep-16 08:04 077 5 gusting 10 25.0
2019-Sep-16 07:59 070 3 gusting 8 25.0
2019-Sep-16 07:54 061 2 gusting 8 24.4
2019-Sep-16 07:49 047 5 gusting 10 24.4
2019-Sep-16 07:44 042 3 gusting 10 25.0
2019-Sep-16 07:39 075 5 gusting 10 24.4
2019-Sep-16 07:34 080 2 gusting 8 24.4
2019-Sep-16 07:29 079 4 gusting 7 24.4
2019-Sep-16 07:24 083 6 gusting 10 24.4
2019-Sep-16 07:19 095 2 gusting 10 24.4
2019-Sep-16 07:14 117 3 gusting 7 24.4
2019-Sep-16 07:09 116 2 gusting 6 24.4
2019-Sep-16 07:04 111 3 gusting 8 24.4
2019-Sep-16 06:59 054 6 gusting 10 24.4
2019-Sep-16 06:54 065 4 gusting 8 24.4
2019-Sep-16 06:49 070 5 gusting 8 24.4
2019-Sep-16 06:44 106 1 gusting 7 24.4
2019-Sep-16 06:39 085 4 gusting 7 23.9
2019-Sep-16 06:34 078 1 gusting 6 23.9
2019-Sep-16 06:29 075 3 gusting 8 23.9
2019-Sep-16 06:24 110 2 gusting 6 23.9
2019-Sep-16 06:19 076 4 gusting 6 23.9
2019-Sep-16 06:14 107 4 gusting 7 23.3
2019-Sep-16 06:09 083 2 gusting 6 23.3
2019-Sep-16 06:04 091 4 gusting 8 23.3
2019-Sep-16 05:59 082 4 gusting 10 23.3
2019-Sep-16 05:54 047 1 gusting 10 23.3
2019-Sep-16 05:49 047 1 gusting 7 23.3
2019-Sep-16 05:44 046 2 gusting 7 22.8
2019-Sep-16 05:39 079 2 gusting 6 22.8
2019-Sep-16 05:34 061 1 gusting 6 22.8
2019-Sep-16 05:29 109 2 gusting 7 22.2
2019-Sep-16 05:24 090 2 gusting 6 22.2
2019-Sep-16 05:19 110 1 gusting 6 22.2
2019-Sep-16 05:14 070 0 gusting 6 22.2
2019-Sep-16 05:09 104 1 gusting 7 22.2
2019-Sep-16 05:04 065 2 gusting 8 22.2
2019-Sep-16 04:59 095 1 gusting 10 22.2
2019-Sep-16 04:54 083 4 gusting 10 22.2
2019-Sep-16 04:49 109 2 gusting 7 22.2
2019-Sep-16 04:44 074 2 gusting 6 22.2
2019-Sep-16 04:39 156 22.2
2019-Sep-16 04:34 156 1 gusting 6 22.2
2019-Sep-16 04:29 157 21.7
2019-Sep-16 04:24 151 21.7
2019-Sep-16 04:19 153 21.7
2019-Sep-16 04:14 148 21.7
2019-Sep-16 04:09 148 21.1
2019-Sep-16 04:04 148 21.1
2019-Sep-16 03:59 148 20.6
2019-Sep-16 03:54 148 20.6
2019-Sep-16 03:49 148 1 gusting 5 20.6
2019-Sep-16 03:44 147 0 gusting 6 20.6
2019-Sep-16 03:39 163 20.6
2019-Sep-16 03:34 147 1 gusting 6 20.0
2019-Sep-16 03:29 138 2 gusting 7 20.0
2019-Sep-16 03:24 172 1 gusting 6 20.0
2019-Sep-16 03:19 154 0 gusting 7 20.0
2019-Sep-16 03:14 159 2 gusting 7 20.0
2019-Sep-16 03:09 162 1 gusting 8 20.0
2019-Sep-16 03:04 166 4 gusting 7 20.0
2019-Sep-16 02:59 138 2 gusting 8 20.0
2019-Sep-16 02:54 141 2 gusting 7 20.0
2019-Sep-16 02:49 149 1 gusting 6 20.0
2019-Sep-16 02:44 178 4 gusting 7 20.0
2019-Sep-16 02:39 155 1 gusting 5 20.0
2019-Sep-16 02:34 162 0 gusting 5 20.0
2019-Sep-16 02:29 152 1 gusting 2 20.0
2019-Sep-16 02:24 153 2 gusting 6 20.0
2019-Sep-16 02:19 144 1 gusting 6 20.0
2019-Sep-16 02:14 149 0 gusting 4 20.0
2019-Sep-16 02:09 129 2 gusting 6 20.0
2019-Sep-16 02:04 156 0 gusting 7 20.0
2019-Sep-16 01:59 141 2 gusting 6 20.0
2019-Sep-16 01:54 154 1 gusting 6 19.4
2019-Sep-16 01:49 158 1 gusting 6 19.4
2019-Sep-16 01:44 164 2 gusting 6 19.4
2019-Sep-16 01:39 164 1 gusting 6 19.4
2019-Sep-16 01:34 185 0 gusting 5 19.4
2019-Sep-16 01:29 165 2 gusting 5 19.4
2019-Sep-16 01:24 168 0 gusting 5 19.4
2019-Sep-16 01:19 169 1 gusting 4 19.4
2019-Sep-16 01:14 163 0 gusting 5 19.4
2019-Sep-16 01:09 180 1 gusting 7 20.0
2019-Sep-16 01:04 160 0 gusting 5 20.0
2019-Sep-16 00:59 177 19.4
2019-Sep-16 00:54 178 19.4
2019-Sep-16 00:49 178 19.4
2019-Sep-16 00:44 178 19.4
2019-Sep-16 00:39 179 0 gusting 2 19.4
2019-Sep-16 00:34 178 19.4
2019-Sep-16 00:29 178 0 gusting 2 19.4
2019-Sep-16 00:24 177 19.4
2019-Sep-16 00:19 177 19.4
2019-Sep-16 00:14 177 19.4
2019-Sep-16 00:09 177 0 gusting 6 19.4
2019-Sep-16 00:04 173 0 gusting 5 19.4
2019-Sep-15 23:59 173 1 gusting 5 19.4
2019-Sep-15 23:54 172 0 gusting 4 19.4
2019-Sep-15 23:49 173 19.4
2019-Sep-15 23:44 175 19.4
2019-Sep-15 23:39 176 0 gusting 2 19.4
2019-Sep-15 23:34 175 19.4
2019-Sep-15 23:29 178 19.4
2019-Sep-15 23:24 173 0 gusting 4 19.4
2019-Sep-15 23:19 171 20.0
2019-Sep-15 23:14 169 20.0
2019-Sep-15 23:09 175 0 gusting 2 20.0
2019-Sep-15 23:04 156 20.0
2019-Sep-15 22:59 162 1 gusting 6 20.0
2019-Sep-15 22:54 161 1 gusting 5 20.0
2019-Sep-15 22:49 163 0 gusting 5 20.0
2019-Sep-15 22:44 166 1 gusting 5 20.0
2019-Sep-15 22:39 164 20.0
2019-Sep-15 22:34 161 0 gusting 2 20.0
2019-Sep-15 22:29 161 20.0
2019-Sep-15 22:24 161 20.0
2019-Sep-15 22:19 173 20.0
2019-Sep-15 22:14 178 20.0
2019-Sep-15 22:09 179 20.0
2019-Sep-15 22:04 180 20.0
2019-Sep-15 21:59 178 20.0
2019-Sep-15 21:54 178 0 gusting 2 20.0
2019-Sep-15 21:49 180 0 gusting 4 20.0
2019-Sep-15 21:44 180 20.0
2019-Sep-15 21:39 181 1 gusting 4 20.0
2019-Sep-15 21:34 178 0 gusting 2 20.0
2019-Sep-15 21:29 177 20.0
2019-Sep-15 21:24 176 0 gusting 2 20.0
2019-Sep-15 21:19 178 20.0
2019-Sep-15 21:14 174 20.0
2019-Sep-15 21:09 172 20.0
2019-Sep-15 21:04 171 20.0
2019-Sep-15 20:59 169 20.0
2019-Sep-15 20:54 169 20.0
2019-Sep-15 20:49 169 20.0
2019-Sep-15 20:44 169 20.0
2019-Sep-15 20:39 169 20.0
2019-Sep-15 20:34 154 20.0
2019-Sep-15 20:29 153 20.0
2019-Sep-15 20:24 157 20.0
2019-Sep-15 20:19 159 20.0
2019-Sep-15 20:14 159 0 gusting 2 20.0
2019-Sep-15 20:09 161 20.0
2019-Sep-15 20:04 167 20.0
2019-Sep-15 19:59 167 20.0
2019-Sep-15 19:54 171 0 gusting 5 20.0
2019-Sep-15 19:49 160 20.0
2019-Sep-15 19:44 171 0 gusting 5 20.0
2019-Sep-15 19:39 158 1 gusting 6 20.6
2019-Sep-15 19:34 163 0 gusting 6 20.6
2019-Sep-15 19:29 157 0 gusting 6 20.6
2019-Sep-15 19:24 151 0 gusting 6 20.6
2019-Sep-15 19:19 153 20.6
2019-Sep-15 19:14 152 0 gusting 4 20.6
2019-Sep-15 19:09 161 0 gusting 5 20.6
2019-Sep-15 19:04 159 0 gusting 4 20.6
2019-Sep-15 18:59 163 2 gusting 6 20.6
2019-Sep-15 18:54 155 1 gusting 6 20.6
2019-Sep-15 18:49 173 1 gusting 5 20.6
2019-Sep-15 18:44 157 20.6
2019-Sep-15 18:39 176 0 gusting 5 20.6
2019-Sep-15 18:34 156 0 gusting 2 20.6
2019-Sep-15 18:29 163 0 gusting 4 20.6
2019-Sep-15 18:24 161 0 gusting 4 21.1
2019-Sep-15 18:19 153 0 gusting 4 21.1
2019-Sep-15 18:14 163 21.1
2019-Sep-15 18:09 153 0 gusting 2 21.1
2019-Sep-15 18:04 157 20.6
2019-Sep-15 17:59 165 20.6
2019-Sep-15 17:54 157 20.6
2019-Sep-15 17:49 160 0 gusting 4 20.6
2019-Sep-15 17:44 161 1 gusting 4 20.6
2019-Sep-15 17:39 158 1 gusting 5 20.6
2019-Sep-15 17:34 150 0 gusting 2 20.6
2019-Sep-15 17:29 154 0 gusting 5 20.6
2019-Sep-15 17:24 163 20.6
2019-Sep-15 17:19 166 20.6
2019-Sep-15 17:14 165 20.6
2019-Sep-15 17:09 162 0 gusting 4 20.6
2019-Sep-15 17:04 159 20.6
2019-Sep-15 16:59 167 0 gusting 4 20.6
2019-Sep-15 16:54 168 0 gusting 4 20.6
2019-Sep-15 16:49 171 0 gusting 5 20.6
2019-Sep-15 16:44 164 20.6
2019-Sep-15 16:39 162 21.1
2019-Sep-15 16:34 166 21.1
2019-Sep-15 16:29 166 1 gusting 5 21.1
2019-Sep-15 16:24 162 21.1
2019-Sep-15 16:19 165 1 gusting 4 21.7
2019-Sep-15 16:14 135 21.7
2019-Sep-15 16:09 131 21.7
2019-Sep-15 16:04 130 21.7
2019-Sep-15 15:59 130 0 gusting 2 21.7
2019-Sep-15 15:54 153 22.2
2019-Sep-15 15:49 132 22.2
2019-Sep-15 15:44 130 22.2
2019-Sep-15 15:39 125 22.2
2019-Sep-15 15:34 115 22.2
2019-Sep-15 15:29 114 22.8
2019-Sep-15 15:24 109 22.8
2019-Sep-15 15:19 103 22.8
2019-Sep-15 15:14 090 22.8
2019-Sep-15 15:09 091 22.8
2019-Sep-15 15:04 103 0 gusting 2 22.8
2019-Sep-15 14:59 104 22.8
2019-Sep-15 14:54 093 22.8
2019-Sep-15 14:49 043 0 gusting 2 22.8
2019-Sep-15 14:44 108 22.8
2019-Sep-15 14:39 083 0 gusting 2 23.3
2019-Sep-15 14:34 076 23.3
2019-Sep-15 14:14 090 23.3
2019-Sep-15 14:09 076 1 gusting 5 23.3
2019-Sep-15 14:04 079 1 gusting 5 23.3
2019-Sep-15 13:59 088 1 gusting 4 23.3
2019-Sep-15 13:54 110 0 gusting 2 23.3
2019-Sep-15 13:49 118 0 gusting 6 23.3
2019-Sep-15 13:44 108 3 gusting 7 23.3
2019-Sep-15 13:39 096 1 gusting 6 23.3
2019-Sep-15 13:34 088 1 gusting 10 23.3
2019-Sep-15 13:29 082 1 gusting 8 23.9
2019-Sep-15 13:24 075 0 gusting 7 23.9
2019-Sep-15 13:19 082 2 gusting 8 23.9
2019-Sep-15 13:14 093 1 gusting 7 23.9
2019-Sep-15 13:09 161 1 gusting 8 23.9
2019-Sep-15 13:04 115 23.9
2019-Sep-15 12:59 107 1 gusting 7 23.9
2019-Sep-15 12:54 084 1 gusting 7 23.9
2019-Sep-15 12:49 116 0 gusting 4 23.9
2019-Sep-15 12:44 116 0 gusting 6 23.9
2019-Sep-15 12:39 093 1 gusting 6 24.4
2019-Sep-15 12:34 106 1 gusting 7 24.4
2019-Sep-15 12:29 083 1 gusting 8 24.4
2019-Sep-15 12:24 075 2 gusting 8 25.0
2019-Sep-15 12:19 104 1 gusting 6 24.4
2019-Sep-15 12:14 114 2 gusting 8 24.4
2019-Sep-15 12:09 116 1 gusting 7 24.4
2019-Sep-15 12:04 082 4 gusting 10 24.4
2019-Sep-15 11:59 071 1 gusting 10 25.0
2019-Sep-15 11:54 078 2 gusting 8 25.0
2019-Sep-15 11:49 056 3 gusting 10 25.0
2019-Sep-15 11:44 106 4 gusting 8 25.6
2019-Sep-15 11:39 079 2 gusting 10 25.6
2019-Sep-15 11:34 095 0 gusting 6 25.0
2019-Sep-15 11:29 052 3 gusting 7 25.0
2019-Sep-15 11:24 086 3 gusting 6 25.0
2019-Sep-15 11:19 081 4 gusting 13 25.6
2019-Sep-15 11:14 096 2 gusting 7 25.0
2019-Sep-15 11:09 129 1 gusting 7 25.0
2019-Sep-15 11:04 061 0 gusting 10 25.0
2019-Sep-15 10:59 068 2 gusting 10 25.6
2019-Sep-15 10:54 091 4 gusting 10 25.6
2019-Sep-15 10:49 058 4 gusting 10 25.6
2019-Sep-15 10:44 052 3 gusting 11 25.6
2019-Sep-15 10:39 054 4 gusting 10 25.6
2019-Sep-15 10:34 067 4 gusting 12 25.6
2019-Sep-15 10:29 085 2 gusting 8 25.6
2019-Sep-15 10:24 068 5 gusting 10 25.6
2019-Sep-15 10:19 074 4 gusting 10 25.6
2019-Sep-15 10:14 056 5 gusting 11 25.6
2019-Sep-15 10:09 068 2 gusting 10 25.6
2019-Sep-15 10:04 087 5 gusting 10 25.6
2019-Sep-15 09:59 083 4 gusting 12 25.6
2019-Sep-15 09:54 102 3 gusting 12 25.6
2019-Sep-15 09:49 055 5 gusting 12 25.6
2019-Sep-15 09:44 064 4 gusting 10 25.6
2019-Sep-15 09:39 080 0 gusting 10 25.6
2019-Sep-15 09:34 061 1 gusting 12 25.6
2019-Sep-15 09:29 045 2 gusting 10 25.6
2019-Sep-15 09:24 097 0 gusting 10 25.6
2019-Sep-15 09:19 112 3 gusting 10 25.6
2019-Sep-15 09:14 117 0 gusting 7 25.6
2019-Sep-15 09:09 131 4 gusting 8 26.1
2019-Sep-15 09:04 056 5 gusting 12 25.6
2019-Sep-15 08:59 114 3 gusting 10 25.6
2019-Sep-15 08:54 085 0 gusting 10 25.6
2019-Sep-15 08:49 116 4 gusting 8 25.6
2019-Sep-15 08:44 092 5 gusting 10 25.6
2019-Sep-15 08:39 103 2 gusting 10 25.6
2019-Sep-15 08:34 126 4 gusting 10 25.6
2019-Sep-15 08:29 073 1 gusting 10 25.6
2019-Sep-15 08:24 087 1 gusting 6 25.6
2019-Sep-15 08:19 062 0 gusting 8 25.6
2019-Sep-15 08:14 104 0 gusting 8 25.6
2019-Sep-15 08:09 051 3 gusting 10 25.6
2019-Sep-15 08:04 072 2 gusting 8 25.6
2019-Sep-15 07:59 030 0 gusting 5 25.6
2019-Sep-15 07:54 057 2 gusting 8 25.6
2019-Sep-15 07:49 051 3 gusting 8 25.6
2019-Sep-15 07:44 058 2 gusting 10 25.6
2019-Sep-15 07:39 058 4 gusting 10 25.6
2019-Sep-15 07:34 088 4 gusting 10 26.1
2019-Sep-15 07:29 075 1 gusting 10 25.6
2019-Sep-15 07:24 116 0 gusting 8 25.6
2019-Sep-15 07:19 039 5 gusting 10 25.6
2019-Sep-15 07:14 020 1 gusting 10 25.6
2019-Sep-15 07:09 083 2 gusting 10 25.0
2019-Sep-15 07:04 036 4 gusting 10 25.0
2019-Sep-15 06:59 084 6 gusting 13 24.4
2019-Sep-15 06:54 053 6 gusting 11 24.4
2019-Sep-15 06:49 048 7 gusting 13 24.4
2019-Sep-15 06:44 062 7 gusting 13 23.9
2019-Sep-15 06:39 074 2 gusting 10 24.4
2019-Sep-15 06:34 077 2 gusting 10 24.4
2019-Sep-15 06:29 085 5 gusting 10 24.4
2019-Sep-15 06:24 104 2 gusting 10 24.4
2019-Sep-15 06:19 086 4 gusting 10 24.4
2019-Sep-15 06:14 101 4 gusting 10 24.4
2019-Sep-15 06:09 081 0 gusting 6 24.4
2019-Sep-15 06:04 080 2 gusting 7 24.4
2019-Sep-15 05:59 067 2 gusting 7 24.4
2019-Sep-15 05:54 083 0 gusting 4 23.9
2019-Sep-15 05:49 123 1 gusting 7 23.9
2019-Sep-15 05:44 097 3 gusting 6 23.9
2019-Sep-15 05:39 124 0 gusting 6 23.9
2019-Sep-15 05:34 124 1 gusting 7 23.9
2019-Sep-15 05:29 139 1 gusting 7 23.9
2019-Sep-15 05:24 075 1 gusting 6 23.9
2019-Sep-15 05:19 081 2 gusting 8 23.3
2019-Sep-15 05:14 115 2 gusting 8 23.3
2019-Sep-15 05:09 059 2 gusting 7 23.3
2019-Sep-15 05:04 123 0 gusting 5 23.3
2019-Sep-15 04:59 102 0 gusting 6 23.3
2019-Sep-15 04:54 106 2 gusting 6 23.3
2019-Sep-15 04:49 091 0 gusting 7 23.9
2019-Sep-15 04:44 148 1 gusting 7 23.3
2019-Sep-15 04:39 121 4 gusting 7 23.3
2019-Sep-15 04:34 131 23.3
2019-Sep-15 04:29 125 0 gusting 6 23.3
2019-Sep-15 04:24 117 0 gusting 2 23.3
2019-Sep-15 04:19 139 0 gusting 2 23.3
2019-Sep-15 04:14 149 23.3
2019-Sep-15 04:09 134 23.3
2019-Sep-15 04:04 110 23.3